Change the Weather History Date:

Friday, November 22, 2013

  Actual Average Record
Temperature  
Mean Temperature 56 °F -  
Max Temperature 66 °F 59 °F 78 °F (2007)
Min Temperature 46 °F 45 °F 33 °F (2004)
Degree Days  
Heating Degree Days 9    
Growing Degree Days 6 (Base 50)    
Moisture  
Dew Point 47 °F    
Average Humidity 79    
Maximum Humidity 100    
Minimum Humidity 45    
Precipitation  
Precipitation 0.00 in - - ()
Sea Level Pressure  
Sea Level Pressure 29.64 in    
Wind  
Wind Speed 5 mph ()    
Max Wind Speed 9 mph    
Max Gust Speed -    
Visibility 6.2 miles    
Events      
Averages and records for this station are not official NWS values.
T = Trace of Precipitation, MM = Missing Value Source: Averaged Metar Reports

Daily Weather History Graph

Daily Weather History Graph

Search for Another Location

Airport or City:

Trip Planner

Search our weather history database for the weather conditions in past years. The results will help you decide how hot, cold, wet, or windy it might be!

Date:

Astronomy

Nov. 22, 2013 Rise Set
Actual Time 6:45 AM CET 4:36 PM CET
Civil Twilight 6:16 AM CET 5:05 PM CET
Nautical Twilight 5:43 AM CET 5:38 PM CET
Astronomical Twilight 5:11 AM CET 6:10 PM CET
Moon 8:51 PM CET (11/22) 10:18 AM CET (11/22)
Length of Visible Light 10h 49m
Length of Day
9h 51m
Waning Gibbous, 80% of the Moon is Illuminated
Nov 22
Waning Gibbous
Nov 25
Last Quarter
Dec 3
New
Dec 9
First Quarter
Dec 17
Full

Hourly Weather History & Observations

Time (CET) Temp. Windchill Dew Point Humidity Pressure Visibility Wind Dir Wind Speed Gust Speed Precip Events Conditions
12:50 AM 48.2 °F - 46.4 °F 93% 29.71 in 6.2 mi NE 5.8 mph - N/A   Scattered Clouds
1:50 AM 48.2 °F - 46.4 °F 93% 29.74 in 6.2 mi East 5.8 mph - N/A   Scattered Clouds
2:50 AM 46.4 °F 42.9 °F 44.6 °F 93% 29.71 in 6.2 mi East 6.9 mph - N/A   Scattered Clouds
3:50 AM 46.4 °F 42.4 °F 44.6 °F 93% 29.68 in 6.2 mi East 8.1 mph - N/A   Scattered Clouds
4:50 AM 48.2 °F - 46.4 °F 93% 29.68 in 6.2 mi East 9.2 mph - N/A   Scattered Clouds
5:50 AM 48.2 °F - 46.4 °F 93% 29.68 in 6.2 mi ENE 6.9 mph - N/A   Partly Cloudy
6:50 AM 46.4 °F 42.4 °F 46.4 °F 100% 29.68 in 6.2 mi East 8.1 mph - N/A   Partly Cloudy
7:50 AM 48.2 °F - 46.4 °F 93% 29.68 in 6.2 mi East 6.9 mph - N/A   Partly Cloudy
8:50 AM 51.8 °F - 50.0 °F 94% 29.68 in 6.2 mi East 8.1 mph - N/A   Partly Cloudy
10:50 AM 62.6 °F - 46.4 °F 55% 29.68 in - Variable 3.5 mph - N/A   Clear
11:50 AM 64.4 °F - 42.8 °F 45% 29.65 in 6.2 mi Variable 4.6 mph - N/A   Partly Cloudy
12:50 PM 64.4 °F - 46.4 °F 52% 29.65 in 6.2 mi Variable 2.3 mph - N/A   Partly Cloudy
1:50 PM 66.2 °F - 46.4 °F 49% 29.62 in 6.2 mi East 4.6 mph - N/A   Partly Cloudy
2:50 PM 66.2 °F - 46.4 °F 49% 29.62 in 6.2 mi Calm Calm - N/A   Partly Cloudy
3:50 PM 62.6 °F - 51.8 °F 68% 29.59 in 6.2 mi East 5.8 mph - N/A   Partly Cloudy
4:50 PM 59.0 °F - 50.0 °F 72% 29.59 in 6.2 mi East 5.8 mph - N/A   Partly Cloudy
5:50 PM 57.2 °F - 50.0 °F 77% 29.59 in 6.2 mi ENE 5.8 mph - N/A   Partly Cloudy
6:50 PM 55.4 °F - 50.0 °F 82% 29.59 in 6.2 mi East 5.8 mph - N/A   Partly Cloudy
7:50 PM 55.4 °F - 50.0 °F 82% 29.59 in 6.2 mi Variable 1.2 mph - N/A   Scattered Clouds
8:50 PM 55.4 °F - 48.2 °F 77% 29.59 in 6.2 mi Variable 1.2 mph - N/A   Scattered Clouds
9:50 PM 51.8 °F - 48.2 °F 88% 29.59 in 6.2 mi SE 4.6 mph - N/A   Scattered Clouds
10:50 PM 51.8 °F - 48.2 °F 88% 29.62 in 6.2 mi NE 4.6 mph - N/A   Scattered Clouds
11:50 PM 48.2 °F - 46.4 °F 93% 29.59 in 6.2 mi East 5.8 mph - N/A   Scattered Clouds